EW0139 Weather Reports


time (UTC)temp
C
wind
direction
speed
KPH
gust
KPH
rain 1hr
cm
rain 24hr
cm
rain mn
cm
humidity
%
barometer
mb
20260508061817 4 262 0.0 0.0 0.00 0.05 0.00 81 1008.1
20260508060738 5 262 0.0 3.2 0.00 0.05 0.00 80 1008.0
20260508055746 5 262 0.0 4.8 0.00 0.05 0.05 78 1007.9
20260508054747 5 262 1.6 8.0 0.00 0.05 0.05 80 1007.9
20260508053748 6 200 4.8 4.8 0.00 0.05 0.05 77 1007.8
20260508052746 7 195 0.0 0.0 0.00 0.05 0.05 76 1007.7
20260508051751 7 194 0.0 0.0 0.00 0.05 0.05 74 1007.6
20260508050754 8 195 0.0 1.6 0.00 0.05 0.05 74 1007.6
20260508045756 8 195 0.0 4.8 0.00 0.05 0.05 72 1007.6
20260508044756 8 195 0.0 6.4 0.00 0.05 0.05 71 1007.6
20260508043739 9 195 4.8 6.4 0.00 0.05 0.05 73 1007.5
20260508042744 9 194 4.8 8.0 0.00 0.05 0.05 73 1007.4
20260508041744 8 188 4.8 8.0 0.00 0.05 0.05 75 1007.3
20260508040744 8 64 1.6 3.2 0.00 0.05 0.05 75 1007.2
20260508035748 8 63 0.0 4.8 0.00 0.05 0.05 74 1007.2
20260508034746 9 63 0.0 3.2 0.00 0.05 0.05 74 1007.2
20260508033745 9 63 0.0 4.8 0.00 0.05 0.05 73 1007.2
20260508032807 10 63 1.6 3.2 0.00 0.05 0.05 73 1007.1
20260508031748 10 63 0.0 0.0 0.00 0.05 0.05 71 1007.2
20260508030751 11 63 0.0 0.0 0.00 0.05 0.05 71 1006.9
20260508025750 11 63 1.6 3.2 0.00 0.05 0.05 70 1006.8
20260508024751 11 63 3.2 8.0 0.00 0.05 0.05 71 1006.8
20260508023753 11 15 3.2 3.2 0.00 0.05 0.05 69 1006.9
20260508022757 12 16 0.0 0.0 0.03 0.05 0.05 71 1006.8
20260508021800 12 16 0.0 6.4 0.05 0.05 0.05 67 1006.5
20260508020742 12 5 4.8 8.0 0.05 0.05 0.05 66 1006.6
20260508015745 13 248 0.0 8.0 0.05 0.05 0.05 63 1006.9
20260508014751 13 313 1.6 6.4 0.05 0.05 0.05 66 1007.1
20260508013815 13 313 6.4 16.1 0.05 0.05 0.05 68 1007.3
20260508012817 13 308 11.3 43.5 0.03 0.03 0.03 62 1007.4
20260508011756 17 279 27.4 41.8 0.00 0.00 0.00 42 1007.4
20260508010757 18 209 16.1 20.9 0.00 0.00 0.00 39 1006.4
20260508005741 18 210 9.7 20.9 0.00 0.00 0.00 37 1006.1
20260508004741 19 246 14.5 22.5 0.00 0.00 0.00 37 1006.2
20260508003743 19 220 20.9 27.4 0.00 0.00 0.00 36 1006.2
20260508002742 20 235 9.7 17.7 0.00 0.00 0.00 32 1006.3
20260508001741 20 227 11.3 20.9 0.00 0.00 0.00 32 1006.2
20260508000745 20 257 8.0 25.7 0.00 0.00 0.00 32 1006.4
20260507235745 20 209 16.1 16.1 0.00 0.00 0.00 29 1006.5
20260507234744 20 263 12.9 30.6 0.00 0.00 0.00 30 1006.6
20260507233743 19 246 9.7 17.7 0.00 0.00 0.00 29 1006.7
20260507232808 19 277 22.5 24.1 0.00 0.00 0.00 30 1006.9
20260507231748 19 293 12.9 20.9 0.00 0.00 0.00 30 1006.8
20260507230751 19 232 14.5 30.6 0.00 0.00 0.00 28 1006.7
20260507225751 19 271 16.1 25.7 0.00 0.00 0.00 28 1007.1
20260507224750 19 254 11.3 30.6 0.00 0.00 0.00 30 1007.1
20260507223749 19 267 22.5 30.6 0.00 0.00 0.00 28 1007.2
20260507222751 19 254 22.5 27.4 0.00 0.00 0.00 28 1007.3
20260507221753 19 277 16.1 32.2 0.00 0.00 0.00 28 1007.5
20260507220751 19 248 16.1 32.2 0.00 0.00 0.00 28 1007.6
20260507215756 18 273 14.5 45.1 0.00 0.00 0.00 29 1007.8
20260507214817 18 263 35.4 37.0 0.00 0.00 0.00 29 1007.8
20260507213741 18 271 33.8 40.2 0.00 0.00 0.00 29 1007.8
20260507212801 18 298 35.4 35.4 0.00 0.00 0.00 28 1008.0
20260507211742 18 266 22.5 29.0 0.00 0.00 0.00 28 1008.3
20260507210741 18 236 16.1 33.8 0.00 0.00 0.00 29 1008.5
20260507205740 18 269 27.4 30.6 0.00 0.00 0.00 27 1008.4
20260507204745 17 223 24.1 30.6 0.00 0.00 0.00 28 1008.6
20260507203746 16 268 16.1 24.1 0.00 0.00 0.00 29 1008.7
20260507202750 17 296 22.5 35.4 0.00 0.00 0.00 29 1008.8
20260507201750 17 257 14.5 29.0 0.00 0.00 0.00 29 1008.9
20260507200750 16 279 8.0 24.1 0.00 0.00 0.00 27 1009.2
20260507195755 17 315 9.7 29.0 0.00 0.00 0.00 25 1009.2
20260507194756 16 262 14.5 17.7 0.00 0.00 0.00 26 1009.2
20260507193756 16 254 9.7 25.7 0.00 0.00 0.00 28 1009.3
20260507192757 16 292 8.0 20.9 0.00 0.00 0.00 27 1009.4
20260507191744 16 293 22.5 24.1 0.00 0.00 0.00 27 1009.5
20260507190742 15 296 8.0 20.9 0.00 0.00 0.00 28 1009.6
20260507185743 15 315 17.7 20.9 0.00 0.00 0.00 27 1009.7
20260507184746 15 297 6.4 20.9 0.00 0.00 0.00 29 1009.7
20260507183745 15 221 9.7 16.1 0.00 0.00 0.00 29 1009.7
20260507182749 15 263 1.6 9.7 0.00 0.00 0.00 29 1009.6
20260507181751 15 296 9.7 20.9 0.00 0.00 0.00 28 1009.5
20260507180750 14 313 4.8 11.3 0.00 0.00 0.00 30 1009.7
20260507175751 13 300 4.8 8.0 0.00 0.00 0.00 29 1009.8
20260507174756 13 293 12.9 16.1 0.00 0.00 0.00 30 1009.9
20260507173741 13 277 1.6 8.0 0.00 0.00 0.00 29 1010.0
20260507172742 13 260 9.7 16.1 0.00 0.00 0.00 30 1010.1
20260507171744 13 238 0.0 12.9 0.00 0.00 0.00 29 1010.2
20260507170810 13 181 3.2 8.0 0.00 0.00 0.00 31 1009.4
20260507165751 12 263 14.5 14.5 0.00 0.00 0.00 31 1009.5
20260507164753 13 267 6.4 11.3 0.00 0.00 0.00 30 1009.6
20260507163753 12 50 1.6 6.4 0.00 0.00 0.00 32 1009.6
20260507162753 12 86 0.0 8.0 0.00 0.00 0.00 31 1009.7
20260507161818 12 86 4.8 4.8 0.00 0.00 0.00 32 1009.5
20260507160756 11 86 1.6 9.7 0.00 0.00 0.00 32 1009.6
20260507155740 10 156 0.0 9.7 0.00 0.00 0.00 32 1009.7
20260507154739 11 161 8.0 14.5 0.00 0.00 0.00 31 1009.6
20260507153747 10 123 9.7 16.1 0.00 0.00 0.00 32 1009.6
20260507152748 10 138 9.7 12.9 0.00 0.00 0.00 33 1009.6
20260507151748 10 132 3.2 11.3 0.00 0.00 0.00 34 1009.7
20260507150750 9 124 6.4 11.3 0.00 0.00 0.00 33 1009.8
20260507145754 9 114 6.4 11.3 0.00 0.00 0.00 35 1009.7
20260507144757 8 122 4.8 12.9 0.00 0.00 0.00 36 1009.7
20260507143757 7 99 6.4 14.5 0.00 0.00 0.00 36 1009.7
20260507142757 7 111 9.7 16.1 0.00 0.00 0.00 35 1009.7
20260507141740 7 114 9.7 12.9 0.00 0.00 0.00 36 1009.8
20260507140803 6 94 9.7 16.1 0.00 0.00 0.00 37 1009.7
20260507135742 6 82 3.2 11.3 0.00 0.00 0.00 38 1009.7
20260507134743 6 82 8.0 14.5 0.00 0.00 0.00 38 1009.5
20260507133744 5 67 3.2 8.0 0.00 0.00 0.00 43 1009.4
20260507132748 4 33 6.4 9.7 0.00 0.00 0.00 43 1009.4
20260507131750 3 30 8.0 9.7 0.00 0.00 0.00 42 1009.6
20260507130751 3 45 8.0 9.7 0.00 0.00 0.00 44 1009.5
20260507125753 2 37 6.4 11.3 0.00 0.00 0.00 44 1009.6
20260507124740 2 38 6.4 17.7 0.00 0.00 0.00 44 1009.4
20260507123741 2 47 14.5 17.7 0.00 0.00 0.00 45 1009.3
20260507122740 1 42 9.7 17.7 0.00 0.00 0.00 45 1009.2
20260507121800 1 57 9.7 17.7 0.00 0.00 0.00 45 1009.2
20260507120745 1 22 12.9 17.7 0.00 0.00 0.00 45 1009.1
20260507115745 1 13 6.4 16.1 0.00 0.00 0.00 46 1009.0
20260507114746 1 28 9.7 16.1 0.00 0.00 0.00 46 1009.0
20260507113744 1 37 8.0 16.1 0.00 0.00 0.00 46 1009.0
20260507112805 1 41 11.3 17.7 0.00 0.00 0.00 45 1009.0
20260507111747 2 36 14.5 19.3 0.00 0.00 0.00 43 1009.1
20260507110750 1 47 12.9 19.3 0.00 0.00 0.00 44 1009.0
20260507105810 1 42 11.3 14.5 0.00 0.00 0.00 45 1009.2
20260507104811 2 39 14.5 16.1 0.00 0.00 0.00 45 1009.2
20260507103751 2 40 8.0 16.1 0.00 0.00 0.00 44 1009.3
20260507102812 2 32 4.8 14.5 0.00 0.00 0.00 45 1009.4
20260507101754 2 30 8.0 16.1 0.00 0.00 0.00 45 1009.4
20260507100754 2 35 6.4 11.3 0.00 0.00 0.00 44 1009.5
20260507095753 2 33 6.4 11.3 0.00 0.00 0.00 43 1009.6
20260507094755 2 30 6.4 12.9 0.00 0.00 0.00 43 1009.8
20260507093803 2 28 6.4 11.3 0.00 0.00 0.00 44 1009.8
20260507092802 2 23 3.2 9.7 0.00 0.00 0.00 45 1009.5
20260507091742 2 21 0.0 8.0 0.00 0.00 0.00 46 1009.5
20260507090742 2 33 9.7 9.7 0.00 0.00 0.00 44 1009.6
20260507085742 3 34 9.7 14.5 0.00 0.00 0.00 44 1009.7
20260507084748 3 40 8.0 12.9 0.00 0.00 0.00 44 1008.7
20260507083749 3 37 9.7 16.1 0.00 0.00 0.00 44 1008.8
20260507082750 3 29 8.0 11.3 0.00 0.00 0.00 44 1008.8
20260507081749 3 36 6.4 9.7 0.00 0.00 0.00 46 1008.9
20260507080750 3 36 8.0 14.5 0.00 0.00 0.00 46 1008.8
20260507075815 2 36 14.5 14.5 0.00 0.00 0.00 50 1008.9
20260507074813 1 41 0.0 3.2 0.00 0.00 0.00 53 1008.9
20260507073814 1 41 3.2 4.8 0.00 0.00 0.00 53 1009.0
20260507072755 2 41 3.2 4.8 0.00 0.00 0.00 53 1008.9
20260507071754 2 41 1.6 6.4 0.00 0.00 0.00 51 1008.8
20260507070821 2 42 4.8 6.4 0.00 0.00 0.00 53 1008.8
20260507065800 2 42 1.6 4.8 0.00 0.00 0.00 53 1008.7
20260507064739 2 42 0.0 3.2 0.00 0.00 0.00 49 1008.7
20260507063741 2 42 1.6 3.2 0.00 0.00 0.00 49 1008.8
20260507062745 2 42 0.0 3.2 0.00 0.00 0.00 51 1008.9